LOCATION_NAME,SAMPLE COLLECTION TIME,DOSE EQUIVALENT RATE (nSv/h),GAMMA COUNT RATE R02 (CPM),GAMMA COUNT RATE R03 (CPM),GAMMA COUNT RATE R04 (CPM),GAMMA COUNT RATE R05 (CPM),GAMMA COUNT RATE R06 (CPM),GAMMA COUNT RATE R07 (CPM),GAMMA COUNT RATE R08 (CPM),GAMMA COUNT RATE R09 (CPM),STATUS
ID: BOISE,01/01/2016 00:10:00,,3155.00,1936.00,504.00,303.00,151.00,185.00,106.00,37.00,APPROVED
ID: BOISE,01/01/2016 01:10:00,,3125.00,1893.00,502.00,301.00,146.00,178.00,105.00,38.00,APPROVED
ID: BOISE,01/01/2016 02:11:00,,3121.00,1897.00,498.00,295.00,146.00,175.00,101.00,37.00,APPROVED
ID: BOISE,01/01/2016 03:11:00,,3120.00,1896.00,501.00,300.00,149.00,178.00,102.00,38.00,APPROVED
ID: BOISE,01/01/2016 04:11:00,,3143.00,1915.00,503.00,298.00,145.00,180.00,103.00,38.00,APPROVED
ID: BOISE,01/01/2016 05:11:00,,3171.00,1914.00,506.00,298.00,145.00,180.00,103.00,36.00,APPROVED
ID: BOISE,01/01/2016 06:11:00,,3204.00,1955.00,505.00,303.00,147.00,181.00,102.00,39.00,APPROVED
ID: BOISE,01/01/2016 07:12:00,,3252.00,2008.00,519.00,320.00,149.00,184.00,105.00,39.00,APPROVED
ID: BOISE,01/01/2016 08:12:00,,3327.00,2082.00,532.00,330.00,156.00,197.00,111.00,41.00,APPROVED
ID: BOISE,01/01/2016 09:12:00,,3384.00,2148.00,548.00,345.00,164.00,199.00,114.00,42.00,APPROVED
ID: BOISE,01/01/2016 10:12:00,,3421.00,2209.00,562.00,367.00,168.00,210.00,121.00,44.00,APPROVED
ID: BOISE,01/01/2016 11:13:00,,3488.00,2264.00,582.00,373.00,172.00,220.00,124.00,45.00,APPROVED
ID: BOISE,01/01/2016 12:13:00,,3506.00,2291.00,585.00,379.00,174.00,223.00,125.00,46.00,APPROVED
ID: BOISE,01/01/2016 13:13:00,,3483.00,2279.00,583.00,383.00,175.00,222.00,121.00,46.00,APPROVED
ID: BOISE,01/01/2016 14:13:00,,3484.00,2303.00,584.00,387.00,176.00,225.00,127.00,46.00,APPROVED
ID: BOISE,01/01/2016 15:14:00,,3548.00,2344.00,596.00,402.00,181.00,231.00,129.00,48.00,APPROVED
ID: BOISE,01/01/2016 16:14:00,,3566.00,2369.00,603.00,410.00,180.00,232.00,130.00,49.00,APPROVED
ID: BOISE,01/01/2016 17:14:00,,3612.00,2373.00,604.00,403.00,181.00,228.00,129.00,48.00,APPROVED
ID: BOISE,01/01/2016 18:14:00,,3581.00,2314.00,596.00,381.00,172.00,225.00,129.00,46.00,APPROVED
ID: BOISE,01/01/2016 19:15:00,,3610.00,2322.00,591.00,378.00,181.00,223.00,125.00,45.00,APPROVED
ID: BOISE,01/01/2016 20:15:00,,3467.00,2248.00,578.00,378.00,168.00,219.00,123.00,44.00,APPROVED
ID: BOISE,01/01/2016 21:15:00,,3414.00,2180.00,562.00,359.00,168.00,212.00,118.00,44.00,APPROVED
ID: BOISE,01/01/2016 22:15:00,,3325.00,2088.00,550.00,342.00,161.00,203.00,114.00,40.00,APPROVED
ID: BOISE,01/01/2016 23:15:00,,3242.00,2006.00,531.00,316.00,154.00,192.00,110.00,39.00,APPROVED
ID: BOISE,01/02/2016 00:16:00,,3250.00,2001.00,524.00,320.00,156.00,187.00,109.00,39.00,APPROVED
ID: BOISE,01/02/2016 01:16:00,,3262.00,2009.00,523.00,322.00,155.00,190.00,108.00,38.00,APPROVED
ID: BOISE,01/02/2016 02:16:00,,3273.00,2016.00,524.00,322.00,156.00,191.00,110.00,40.00,APPROVED
ID: BOISE,01/02/2016 03:16:00,,3270.00,2037.00,531.00,322.00,156.00,193.00,108.00,39.00,APPROVED
ID: BOISE,01/02/2016 04:17:00,,3284.00,2039.00,527.00,327.00,155.00,190.00,111.00,41.00,APPROVED
ID: BOISE,01/02/2016 05:17:00,,3312.00,2065.00,532.00,332.00,155.00,195.00,109.00,40.00,APPROVED
ID: BOISE,01/02/2016 06:17:00,,3356.00,2105.00,540.00,335.00,158.00,194.00,114.00,43.00,APPROVED
ID: BOISE,01/02/2016 07:17:00,,3384.00,2136.00,550.00,347.00,162.00,199.00,114.00,43.00,APPROVED
ID: BOISE,01/02/2016 08:18:00,,3369.00,2146.00,547.00,352.00,165.00,206.00,118.00,43.00,APPROVED
ID: BOISE,01/02/2016 09:18:00,,3403.00,2173.00,554.00,353.00,165.00,208.00,121.00,44.00,APPROVED
ID: BOISE,01/02/2016 10:18:00,,3461.00,2231.00,573.00,367.00,168.00,216.00,118.00,47.00,APPROVED
ID: BOISE,01/02/2016 11:18:00,,3483.00,2273.00,577.00,378.00,173.00,218.00,125.00,46.00,APPROVED
ID: BOISE,01/02/2016 12:19:00,,3598.00,2358.00,597.00,395.00,178.00,228.00,127.00,48.00,APPROVED
ID: BOISE,01/02/2016 13:19:00,,3589.00,2351.00,594.00,387.00,179.00,226.00,129.00,50.00,APPROVED
ID: BOISE,01/02/2016 14:19:00,,3576.00,2352.00,597.00,396.00,176.00,225.00,126.00,48.00,APPROVED
ID: BOISE,01/02/2016 15:19:00,,3602.00,2384.00,596.00,401.00,180.00,230.00,129.00,49.00,APPROVED
ID: BOISE,01/02/2016 16:19:00,,3680.00,2429.00,621.00,414.00,187.00,237.00,134.00,49.00,APPROVED
ID: BOISE,01/02/2016 17:20:00,,3632.00,2413.00,609.00,413.00,183.00,233.00,131.00,49.00,APPROVED
ID: BOISE,01/02/2016 18:20:00,,3598.00,2342.00,602.00,392.00,179.00,227.00,129.00,46.00,APPROVED
ID: BOISE,01/02/2016 19:20:00,,3426.00,2170.00,562.00,354.00,167.00,208.00,120.00,44.00,APPROVED
ID: BOISE,01/02/2016 20:20:00,,3320.00,2057.00,535.00,325.00,155.00,194.00,113.00,41.00,APPROVED
ID: BOISE,01/02/2016 21:21:00,,3290.00,1994.00,521.00,305.00,151.00,187.00,106.00,39.00,APPROVED
ID: BOISE,01/02/2016 22:21:00,,3242.00,1950.00,516.00,299.00,148.00,180.00,104.00,38.00,APPROVED
ID: BOISE,01/02/2016 23:21:00,,3221.00,1923.00,511.00,291.00,149.00,176.00,105.00,37.00,APPROVED
ID: BOISE,01/03/2016 00:21:00,,3201.00,1905.00,500.00,292.00,147.00,173.00,104.00,36.00,APPROVED
ID: BOISE,01/03/2016 01:22:00,,3167.00,1881.00,496.00,287.00,143.00,175.00,99.00,36.00,APPROVED
ID: BOISE,01/03/2016 02:22:00,,3141.00,1880.00,487.00,280.00,143.00,171.00,100.00,35.00,APPROVED
ID: BOISE,01/03/2016 03:22:00,,3143.00,1882.00,489.00,282.00,143.00,171.00,99.00,37.00,APPROVED
ID: BOISE,01/03/2016 04:22:00,,3289.00,2031.00,523.00,317.00,150.00,189.00,109.00,39.00,APPROVED
ID: BOISE,01/03/2016 05:23:00,,3385.00,2126.00,551.00,347.00,162.00,206.00,119.00,42.00,APPROVED
ID: BOISE,01/03/2016 06:23:00,,3411.00,2161.00,564.00,357.00,167.00,209.00,117.00,45.00,APPROVED
ID: BOISE,01/03/2016 07:23:00,,3399.00,2158.00,556.00,359.00,165.00,207.00,117.00,44.00,APPROVED
ID: BOISE,01/03/2016 08:23:00,,3373.00,2158.00,555.00,355.00,169.00,210.00,118.00,43.00,APPROVED
ID: BOISE,01/03/2016 09:24:00,,3371.00,2166.00,559.00,352.00,170.00,212.00,118.00,44.00,APPROVED
ID: BOISE,01/03/2016 10:24:00,,3372.00,2167.00,564.00,361.00,167.00,214.00,121.00,43.00,APPROVED
ID: BOISE,01/03/2016 11:24:00,,3389.00,2186.00,565.00,362.00,168.00,217.00,122.00,45.00,APPROVED
ID: BOISE,01/03/2016 12:24:00,,3388.00,2197.00,563.00,367.00,172.00,216.00,123.00,45.00,APPROVED
ID: BOISE,01/03/2016 13:24:00,,3380.00,2186.00,570.00,373.00,169.00,215.00,121.00,43.00,APPROVED
ID: BOISE,01/03/2016 14:25:00,,3379.00,2202.00,573.00,373.00,171.00,221.00,121.00,46.00,APPROVED
ID: BOISE,01/03/2016 15:25:00,,3376.00,2199.00,573.00,377.00,172.00,219.00,126.00,44.00,APPROVED
ID: BOISE,01/03/2016 16:25:00,,3373.00,2182.00,564.00,370.00,168.00,214.00,121.00,43.00,APPROVED
ID: BOISE,01/03/2016 17:25:00,,3386.00,2178.00,565.00,360.00,169.00,214.00,121.00,44.00,APPROVED
ID: BOISE,01/03/2016 18:26:00,,3365.00,2170.00,560.00,357.00,167.00,215.00,120.00,43.00,APPROVED
ID: BOISE,01/03/2016 19:26:00,,3356.00,2137.00,564.00,354.00,164.00,214.00,117.00,41.00,APPROVED
ID: BOISE,01/03/2016 20:26:00,,3333.00,2108.00,556.00,347.00,163.00,207.00,114.00,43.00,APPROVED
ID: BOISE,01/03/2016 21:26:00,,3311.00,2073.00,546.00,342.00,162.00,206.00,116.00,42.00,APPROVED
ID: BOISE,01/03/2016 22:27:00,,3309.00,2067.00,548.00,337.00,160.00,200.00,116.00,40.00,APPROVED
ID: BOISE,01/03/2016 23:27:00,,3303.00,2055.00,547.00,331.00,161.00,199.00,113.00,41.00,APPROVED
ID: BOISE,01/04/2016 00:27:00,,3329.00,2065.00,542.00,328.00,158.00,196.00,113.00,39.00,APPROVED
ID: BOISE,01/04/2016 01:27:00,,3321.00,2067.00,540.00,333.00,159.00,196.00,112.00,40.00,APPROVED
ID: BOISE,01/04/2016 02:28:00,,3330.00,2086.00,546.00,339.00,160.00,203.00,113.00,41.00,APPROVED
ID: BOISE,01/04/2016 03:28:00,,3260.00,2053.00,543.00,333.00,156.00,200.00,112.00,41.00,APPROVED
ID: BOISE,01/04/2016 04:28:00,,3242.00,2015.00,529.00,327.00,156.00,195.00,112.00,41.00,APPROVED
ID: BOISE,01/04/2016 05:28:00,,3213.00,1965.00,524.00,311.00,153.00,189.00,109.00,39.00,APPROVED
ID: BOISE,01/04/2016 06:29:00,,3233.00,1983.00,522.00,308.00,149.00,187.00,108.00,39.00,APPROVED
ID: BOISE,01/04/2016 07:29:00,,3199.00,1955.00,516.00,305.00,150.00,186.00,107.00,38.00,APPROVED
ID: BOISE,01/04/2016 08:29:00,,3212.00,1958.00,513.00,303.00,152.00,185.00,105.00,38.00,APPROVED
ID: BOISE,01/04/2016 09:29:00,,3200.00,1954.00,511.00,299.00,147.00,184.00,103.00,38.00,APPROVED
ID: BOISE,01/04/2016 10:29:00,,3189.00,1929.00,506.00,293.00,147.00,176.00,103.00,37.00,APPROVED
ID: BOISE,01/04/2016 11:30:00,,3156.00,1881.00,501.00,287.00,142.00,175.00,102.00,37.00,APPROVED
ID: BOISE,01/04/2016 12:30:00,,3234.00,1961.00,511.00,298.00,151.00,184.00,105.00,37.00,APPROVED
ID: BOISE,01/04/2016 13:30:00,,3303.00,2034.00,533.00,313.00,154.00,190.00,112.00,39.00,APPROVED
ID: BOISE,01/04/2016 14:30:00,,3297.00,2052.00,538.00,324.00,156.00,197.00,109.00,40.00,APPROVED
ID: BOISE,01/04/2016 15:31:00,,3332.00,2097.00,550.00,337.00,161.00,203.00,115.00,40.00,APPROVED
ID: BOISE,01/04/2016 16:31:00,,3291.00,2061.00,539.00,334.00,160.00,199.00,113.00,40.00,APPROVED
ID: BOISE,01/04/2016 17:31:00,,3302.00,2061.00,545.00,327.00,158.00,200.00,116.00,40.00,APPROVED
ID: BOISE,01/04/2016 18:31:00,,3246.00,2035.00,537.00,328.00,156.00,199.00,112.00,39.00,APPROVED
ID: BOISE,01/04/2016 19:32:00,,3113.00,1914.00,518.00,301.00,149.00,185.00,103.00,38.00,APPROVED
ID: BOISE,01/04/2016 20:32:00,,3039.00,1825.00,501.00,274.00,143.00,174.00,101.00,36.00,APPROVED
ID: BOISE,01/04/2016 21:32:00,,2984.00,1795.00,487.00,269.00,142.00,171.00,99.00,35.00,APPROVED
ID: BOISE,01/04/2016 22:32:00,,3001.00,1774.00,486.00,267.00,139.00,172.00,97.00,36.00,APPROVED
ID: BOISE,01/04/2016 23:33:00,,2989.00,1776.00,486.00,266.00,138.00,168.00,97.00,36.00,APPROVED
ID: BOISE,01/05/2016 00:33:00,,3055.00,1803.00,487.00,265.00,138.00,170.00,97.00,35.00,APPROVED
ID: BOISE,01/05/2016 01:33:00,,3177.00,1915.00,507.00,290.00,147.00,179.00,103.00,38.00,APPROVED
ID: BOISE,01/05/2016 02:33:00,,3219.00,1955.00,521.00,304.00,150.00,184.00,105.00,37.00,APPROVED
ID: BOISE,01/05/2016 03:33:00,,3295.00,2027.00,533.00,313.00,156.00,192.00,111.00,38.00,APPROVED
ID: BOISE,01/05/2016 04:34:00,,3326.00,2075.00,544.00,327.00,159.00,196.00,112.00,42.00,APPROVED
ID: BOISE,01/05/2016 05:34:00,,3368.00,2132.00,557.00,339.00,162.00,203.00,115.00,42.00,APPROVED
ID: BOISE,01/05/2016 06:34:00,,3423.00,2185.00,573.00,354.00,167.00,214.00,119.00,45.00,APPROVED
ID: BOISE,01/05/2016 07:34:00,,3427.00,2196.00,575.00,361.00,166.00,214.00,120.00,41.00,APPROVED
ID: BOISE,01/05/2016 08:35:00,,3424.00,2181.00,574.00,360.00,169.00,216.00,122.00,42.00,APPROVED
ID: BOISE,01/05/2016 09:35:00,,3404.00,2187.00,571.00,363.00,170.00,214.00,123.00,42.00,APPROVED
ID: BOISE,01/05/2016 10:35:00,,3393.00,2190.00,576.00,369.00,168.00,220.00,126.00,44.00,APPROVED
ID: BOISE,01/05/2016 11:35:00,,3384.00,2199.00,574.00,373.00,172.00,222.00,121.00,44.00,APPROVED
ID: BOISE,01/05/2016 12:36:00,,3390.00,2206.00,584.00,373.00,172.00,223.00,122.00,44.00,APPROVED
ID: BOISE,01/05/2016 13:36:00,,3424.00,2222.00,589.00,379.00,175.00,225.00,127.00,43.00,APPROVED
ID: BOISE,01/05/2016 14:37:00,,3376.00,2184.00,576.00,366.00,172.00,218.00,123.00,44.00,APPROVED
ID: BOISE,01/05/2016 15:37:00,,3273.00,2103.00,558.00,346.00,162.00,207.00,116.00,41.00,APPROVED
ID: BOISE,01/05/2016 16:38:00,,3363.00,2155.00,561.00,346.00,163.00,213.00,118.00,41.00,APPROVED
ID: BOISE,01/05/2016 17:38:00,,3304.00,2106.00,556.00,341.00,167.00,203.00,117.00,41.00,APPROVED
ID: BOISE,01/05/2016 18:38:00,,3285.00,2073.00,552.00,341.00,164.00,207.00,115.00,41.00,APPROVED
ID: BOISE,01/05/2016 19:38:00,,3148.00,1979.00,542.00,318.00,158.00,200.00,108.00,41.00,APPROVED
ID: BOISE,01/05/2016 20:39:00,,2982.00,1835.00,519.00,287.00,146.00,187.00,106.00,37.00,APPROVED
ID: BOISE,01/05/2016 21:39:00,,3041.00,1858.00,505.00,285.00,148.00,177.00,102.00,37.00,APPROVED
ID: BOISE,01/05/2016 22:39:00,,3113.00,1882.00,514.00,288.00,144.00,184.00,104.00,35.00,APPROVED
ID: BOISE,01/05/2016 23:39:00,,3102.00,1873.00,507.00,287.00,144.00,179.00,103.00,36.00,APPROVED
ID: BOISE,01/06/2016 00:39:00,,3112.00,1872.00,502.00,280.00,145.00,178.00,102.00,34.00,APPROVED
ID: BOISE,01/06/2016 01:40:00,,3129.00,1876.00,509.00,285.00,145.00,177.00,102.00,35.00,APPROVED
ID: BOISE,01/06/2016 02:40:00,,3146.00,1892.00,507.00,286.00,147.00,177.00,104.00,36.00,APPROVED
ID: BOISE,01/06/2016 03:40:00,,3170.00,1922.00,508.00,297.00,148.00,179.00,105.00,38.00,APPROVED
ID: BOISE,01/06/2016 23:02:00,,3024.00,1684.00,451.00,227.00,129.00,148.00,85.00,31.00,APPROVED
ID: BOISE,01/07/2016 00:02:00,,3004.00,1763.00,478.00,257.00,137.00,162.00,96.00,33.00,APPROVED
ID: BOISE,01/07/2016 01:02:00,,3034.00,1809.00,484.00,267.00,141.00,171.00,100.00,34.00,APPROVED
ID: BOISE,01/07/2016 02:02:00,,3184.00,1913.00,508.00,292.00,148.00,184.00,106.00,37.00,APPROVED
ID: BOISE,01/07/2016 03:03:00,,3296.00,2054.00,543.00,321.00,157.00,199.00,112.00,38.00,APPROVED
ID: BOISE,01/07/2016 04:03:00,,3374.00,2115.00,561.00,338.00,162.00,210.00,115.00,40.00,APPROVED
ID: BOISE,01/07/2016 05:03:00,,3342.00,2078.00,555.00,333.00,165.00,203.00,116.00,39.00,APPROVED
ID: BOISE,01/07/2016 06:03:00,,3289.00,2047.00,544.00,329.00,159.00,201.00,114.00,40.00,APPROVED
ID: BOISE,01/07/2016 07:04:00,,3286.00,2035.00,529.00,328.00,158.00,202.00,112.00,40.00,APPROVED
ID: BOISE,01/07/2016 08:04:00,,3289.00,2048.00,544.00,330.00,159.00,201.00,112.00,37.00,APPROVED
ID: BOISE,01/07/2016 09:04:00,,3278.00,2045.00,548.00,327.00,157.00,197.00,111.00,40.00,APPROVED
ID: BOISE,01/07/2016 10:04:00,,3305.00,2056.00,543.00,331.00,162.00,200.00,114.00,40.00,APPROVED
ID: BOISE,01/07/2016 11:05:00,,3357.00,2161.00,569.00,359.00,167.00,210.00,119.00,42.00,APPROVED
ID: BOISE,01/07/2016 12:05:00,,3433.00,2234.00,591.00,380.00,176.00,228.00,127.00,44.00,APPROVED
ID: BOISE,01/07/2016 13:05:00,,3441.00,2257.00,597.00,394.00,179.00,233.00,130.00,45.00,APPROVED
ID: BOISE,01/07/2016 14:05:00,,3465.00,2290.00,606.00,405.00,183.00,239.00,132.00,46.00,APPROVED
ID: BOISE,01/07/2016 15:06:00,,3446.00,2314.00,604.00,408.00,186.00,241.00,134.00,47.00,APPROVED
ID: BOISE,01/07/2016 16:06:00,,3404.00,2265.00,601.00,399.00,177.00,241.00,131.00,45.00,APPROVED
ID: BOISE,01/07/2016 17:06:00,,3354.00,2218.00,589.00,387.00,175.00,230.00,130.00,46.00,APPROVED
ID: BOISE,01/07/2016 18:06:00,,3361.00,2198.00,582.00,381.00,175.00,231.00,128.00,45.00,APPROVED
ID: BOISE,01/07/2016 19:06:00,,3279.00,2135.00,569.00,365.00,171.00,218.00,123.00,43.00,APPROVED
ID: BOISE,01/07/2016 20:07:00,,3201.00,1998.00,533.00,329.00,155.00,198.00,113.00,40.00,APPROVED
ID: BOISE,01/07/2016 21:07:00,,3103.00,1896.00,503.00,301.00,147.00,183.00,105.00,37.00,APPROVED
ID: BOISE,01/07/2016 22:07:00,,3102.00,1875.00,501.00,296.00,143.00,181.00,105.00,36.00,APPROVED
ID: BOISE,01/07/2016 23:07:00,,3059.00,1833.00,489.00,281.00,144.00,173.00,103.00,37.00,APPROVED
ID: BOISE,01/08/2016 00:08:00,,3000.00,1768.00,474.00,264.00,138.00,165.00,97.00,35.00,APPROVED
ID: BOISE,01/08/2016 01:08:00,,3009.00,1754.00,472.00,262.00,136.00,163.00,94.00,33.00,APPROVED
ID: BOISE,01/08/2016 02:08:00,,3027.00,1770.00,470.00,264.00,138.00,164.00,95.00,34.00,APPROVED
ID: BOISE,01/08/2016 03:08:00,,3049.00,1801.00,477.00,267.00,136.00,164.00,97.00,34.00,APPROVED
ID: BOISE,01/08/2016 04:09:00,,3053.00,1829.00,479.00,277.00,140.00,169.00,101.00,35.00,APPROVED
ID: BOISE,01/08/2016 05:09:00,,3066.00,1813.00,480.00,270.00,139.00,165.00,97.00,34.00,APPROVED
ID: BOISE,01/08/2016 06:09:00,,3034.00,1761.00,470.00,263.00,135.00,162.00,95.00,34.00,APPROVED
ID: BOISE,01/08/2016 07:09:00,,3054.00,1793.00,470.00,260.00,136.00,162.00,95.00,34.00,APPROVED
ID: BOISE,01/08/2016 08:10:00,,3031.00,1798.00,474.00,272.00,135.00,164.00,95.00,35.00,APPROVED
ID: BOISE,01/08/2016 09:10:00,,3024.00,1788.00,475.00,266.00,139.00,164.00,95.00,34.00,APPROVED
ID: BOISE,01/08/2016 10:10:00,,3037.00,1816.00,479.00,271.00,137.00,169.00,100.00,34.00,APPROVED
ID: BOISE,01/08/2016 11:10:00,,3065.00,1828.00,485.00,280.00,141.00,169.00,97.00,35.00,APPROVED
ID: BOISE,01/08/2016 12:11:00,,3078.00,1841.00,479.00,280.00,141.00,168.00,100.00,36.00,APPROVED
ID: BOISE,01/08/2016 13:11:00,,3065.00,1846.00,485.00,278.00,140.00,169.00,101.00,35.00,APPROVED
ID: BOISE,01/08/2016 14:11:00,,3093.00,1902.00,503.00,298.00,143.00,176.00,101.00,38.00,APPROVED
ID: BOISE,01/08/2016 15:11:00,,3108.00,1931.00,504.00,306.00,148.00,183.00,106.00,38.00,APPROVED
ID: BOISE,01/08/2016 16:11:00,,3069.00,1916.00,507.00,311.00,152.00,183.00,106.00,38.00,APPROVED
ID: BOISE,01/08/2016 17:12:00,,3055.00,1899.00,497.00,306.00,149.00,179.00,105.00,38.00,APPROVED
ID: BOISE,01/08/2016 18:12:00,,3019.00,1823.00,488.00,282.00,141.00,173.00,99.00,37.00,APPROVED
ID: BOISE,01/08/2016 19:12:00,,2914.00,1712.00,456.00,252.00,133.00,157.00,92.00,32.00,APPROVED
ID: BOISE,01/08/2016 20:12:00,,2821.00,1605.00,437.00,230.00,125.00,148.00,88.00,31.00,APPROVED
ID: BOISE,01/08/2016 21:13:00,,2781.00,1567.00,429.00,221.00,124.00,141.00,83.00,32.00,APPROVED
ID: BOISE,01/08/2016 22:13:00,,2768.00,1560.00,430.00,214.00,121.00,139.00,84.00,29.00,APPROVED
ID: BOISE,01/08/2016 23:13:00,,2797.00,1584.00,424.00,220.00,122.00,139.00,83.00,29.00,APPROVED
ID: BOISE,01/09/2016 00:13:00,,2828.00,1595.00,425.00,216.00,120.00,141.00,82.00,30.00,APPROVED
ID: BOISE,01/09/2016 01:14:00,,2831.00,1591.00,423.00,219.00,124.00,141.00,85.00,29.00,APPROVED
ID: BOISE,01/09/2016 02:14:00,,2836.00,1588.00,427.00,222.00,122.00,141.00,84.00,31.00,APPROVED
ID: BOISE,01/09/2016 03:14:00,,2851.00,1599.00,423.00,221.00,120.00,141.00,83.00,30.00,APPROVED
ID: BOISE,01/09/2016 04:14:00,,2863.00,1590.00,422.00,215.00,120.00,141.00,84.00,30.00,APPROVED
ID: BOISE,01/09/2016 05:15:00,,2874.00,1617.00,428.00,219.00,119.00,139.00,84.00,30.00,APPROVED
ID: BOISE,01/09/2016 06:15:00,,2871.00,1618.00,433.00,222.00,124.00,142.00,85.00,31.00,APPROVED
ID: BOISE,01/09/2016 07:15:00,,2867.00,1633.00,433.00,225.00,119.00,142.00,83.00,30.00,APPROVED
ID: BOISE,01/09/2016 08:15:00,,2868.00,1619.00,426.00,227.00,123.00,137.00,84.00,30.00,APPROVED
ID: BOISE,01/09/2016 09:16:00,,2882.00,1650.00,433.00,232.00,125.00,142.00,86.00,32.00,APPROVED
ID: BOISE,01/09/2016 10:16:00,,2888.00,1660.00,437.00,235.00,126.00,143.00,88.00,32.00,APPROVED
ID: BOISE,01/09/2016 11:16:00,,2894.00,1669.00,439.00,233.00,126.00,146.00,87.00,32.00,APPROVED
ID: BOISE,01/09/2016 12:16:00,,2904.00,1675.00,447.00,238.00,127.00,149.00,88.00,32.00,APPROVED
ID: BOISE,01/09/2016 13:16:00,,2922.00,1707.00,444.00,242.00,129.00,147.00,90.00,33.00,APPROVED
ID: BOISE,01/09/2016 14:17:00,,2950.00,1721.00,456.00,246.00,131.00,153.00,92.00,33.00,APPROVED
ID: BOISE,01/09/2016 15:17:00,,3000.00,1748.00,467.00,255.00,132.00,157.00,92.00,33.00,APPROVED
ID: BOISE,01/09/2016 16:17:00,,3030.00,1769.00,464.00,252.00,133.00,159.00,93.00,34.00,APPROVED
ID: BOISE,01/09/2016 17:17:00,,3061.00,1780.00,465.00,255.00,134.00,159.00,92.00,32.00,APPROVED
ID: BOISE,01/09/2016 18:18:00,,3036.00,1750.00,464.00,248.00,131.00,156.00,92.00,32.00,APPROVED
ID: BOISE,01/09/2016 19:18:00,,2944.00,1687.00,451.00,236.00,126.00,150.00,89.00,31.00,APPROVED
ID: BOISE,01/09/2016 20:18:00,,2858.00,1616.00,447.00,227.00,128.00,149.00,87.00,32.00,APPROVED
ID: BOISE,01/09/2016 21:18:00,,2798.00,1615.00,448.00,227.00,128.00,151.00,90.00,31.00,APPROVED
ID: BOISE,01/09/2016 22:19:00,,2800.00,1609.00,449.00,233.00,128.00,152.00,86.00,32.00,APPROVED
ID: BOISE,01/09/2016 23:19:00,,2731.00,1563.00,431.00,222.00,122.00,148.00,83.00,30.00,APPROVED
ID: BOISE,01/10/2016 00:19:00,,2832.00,1596.00,438.00,224.00,126.00,145.00,87.00,30.00,APPROVED
ID: BOISE,01/10/2016 01:19:00,,2952.00,1656.00,445.00,234.00,128.00,148.00,86.00,32.00,APPROVED
ID: BOISE,01/10/2016 02:20:00,,3008.00,1704.00,450.00,236.00,129.00,148.00,88.00,32.00,APPROVED
ID: BOISE,01/10/2016 03:20:00,,3020.00,1708.00,454.00,243.00,129.00,150.00,91.00,32.00,APPROVED
ID: BOISE,01/10/2016 04:20:00,,3004.00,1719.00,450.00,243.00,129.00,151.00,90.00,32.00,APPROVED
ID: BOISE,01/10/2016 05:20:00,,3024.00,1728.00,458.00,245.00,131.00,153.00,89.00,33.00,APPROVED
ID: BOISE,01/10/2016 06:21:00,,3065.00,1790.00,467.00,259.00,136.00,161.00,93.00,33.00,APPROVED
ID: BOISE,01/10/2016 07:21:00,,3096.00,1815.00,477.00,265.00,137.00,164.00,95.00,34.00,APPROVED
ID: BOISE,01/10/2016 08:21:00,,3072.00,1811.00,472.00,266.00,136.00,161.00,94.00,34.00,APPROVED
ID: BOISE,01/10/2016 09:21:00,,3095.00,1813.00,473.00,268.00,134.00,164.00,96.00,35.00,APPROVED
ID: BOISE,01/10/2016 10:22:00,,3110.00,1865.00,488.00,284.00,143.00,172.00,99.00,35.00,APPROVED
ID: BOISE,01/10/2016 11:22:00,,3129.00,1902.00,496.00,300.00,144.00,175.00,102.00,38.00,APPROVED
ID: BOISE,01/10/2016 12:22:00,,3133.00,1922.00,501.00,297.00,147.00,179.00,106.00,37.00,APPROVED
ID: BOISE,01/10/2016 13:22:00,,3144.00,1911.00,494.00,291.00,144.00,175.00,103.00,38.00,APPROVED
ID: BOISE,01/10/2016 14:23:00,,3158.00,1908.00,503.00,292.00,146.00,174.00,102.00,37.00,APPROVED
ID: BOISE,01/10/2016 15:23:00,,3186.00,1922.00,502.00,291.00,144.00,174.00,101.00,37.00,APPROVED
ID: BOISE,01/10/2016 16:23:00,,3207.00,1937.00,501.00,297.00,147.00,178.00,103.00,37.00,APPROVED
ID: BOISE,01/10/2016 17:23:00,,3199.00,1933.00,503.00,291.00,146.00,178.00,103.00,38.00,APPROVED
ID: BOISE,01/10/2016 18:24:00,,3196.00,1911.00,495.00,285.00,145.00,172.00,102.00,36.00,APPROVED
ID: BOISE,01/10/2016 19:24:00,,3160.00,1867.00,492.00,280.00,142.00,171.00,101.00,35.00,APPROVED
ID: BOISE,01/10/2016 20:24:00,,3121.00,1838.00,484.00,267.00,137.00,162.00,96.00,36.00,APPROVED
ID: BOISE,01/10/2016 21:24:00,,3130.00,1821.00,482.00,261.00,135.00,161.00,94.00,35.00,APPROVED
ID: BOISE,01/10/2016 22:24:00,,3109.00,1807.00,474.00,261.00,138.00,159.00,94.00,34.00,APPROVED
ID: BOISE,01/10/2016 23:25:00,,3020.00,1743.00,464.00,252.00,134.00,154.00,92.00,33.00,APPROVED
ID: BOISE,01/11/2016 00:25:00,,2980.00,1704.00,453.00,243.00,128.00,152.00,91.00,33.00,APPROVED
ID: BOISE,01/11/2016 01:25:00,,2933.00,1687.00,449.00,238.00,128.00,149.00,89.00,32.00,APPROVED
ID: BOISE,01/11/2016 02:25:00,,2949.00,1673.00,444.00,233.00,127.00,145.00,87.00,32.00,APPROVED
ID: BOISE,01/11/2016 03:26:00,,2935.00,1670.00,443.00,235.00,124.00,145.00,87.00,30.00,APPROVED
ID: BOISE,01/11/2016 04:26:00,,2951.00,1676.00,439.00,237.00,127.00,146.00,88.00,31.00,APPROVED
ID: BOISE,01/11/2016 05:26:00,,2970.00,1716.00,449.00,245.00,127.00,150.00,91.00,32.00,APPROVED
ID: BOISE,01/11/2016 06:26:00,,3036.00,1765.00,461.00,251.00,132.00,155.00,91.00,33.00,APPROVED
ID: BOISE,01/11/2016 07:27:00,,3042.00,1777.00,469.00,260.00,133.00,158.00,94.00,33.00,APPROVED
ID: BOISE,01/11/2016 08:27:00,,3134.00,1863.00,482.00,277.00,140.00,169.00,100.00,35.00,APPROVED
ID: BOISE,01/11/2016 09:27:00,,3165.00,1924.00,499.00,288.00,146.00,176.00,102.00,37.00,APPROVED
ID: BOISE,01/11/2016 10:27:00,,3155.00,1906.00,500.00,297.00,142.00,180.00,102.00,38.00,APPROVED
ID: BOISE,01/11/2016 11:28:00,,3161.00,1922.00,502.00,289.00,146.00,176.00,102.00,38.00,APPROVED
ID: BOISE,01/11/2016 12:28:00,,3185.00,1937.00,504.00,293.00,145.00,176.00,104.00,37.00,APPROVED
ID: BOISE,01/11/2016 13:28:00,,3103.00,1881.00,489.00,285.00,140.00,174.00,100.00,35.00,APPROVED
ID: BOISE,01/11/2016 14:28:00,,3159.00,1919.00,498.00,289.00,145.00,176.00,103.00,36.00,APPROVED
ID: BOISE,01/11/2016 15:29:00,,3202.00,1952.00,505.00,296.00,148.00,179.00,105.00,39.00,APPROVED
ID: BOISE,01/11/2016 16:29:00,,3157.00,1938.00,502.00,295.00,145.00,180.00,103.00,36.00,APPROVED
ID: BOISE,01/11/2016 17:29:00,,3118.00,1884.00,490.00,292.00,144.00,173.00,102.00,36.00,APPROVED
ID: BOISE,01/11/2016 18:29:00,,3010.00,1799.00,471.00,269.00,137.00,165.00,97.00,35.00,APPROVED
ID: BOISE,01/11/2016 19:30:00,,2916.00,1700.00,455.00,251.00,132.00,153.00,91.00,33.00,APPROVED
ID: BOISE,01/11/2016 20:30:00,,2941.00,1695.00,450.00,246.00,129.00,153.00,90.00,33.00,APPROVED
ID: BOISE,01/11/2016 21:30:00,,2917.00,1680.00,445.00,237.00,129.00,151.00,90.00,32.00,APPROVED
ID: BOISE,01/11/2016 22:30:00,,2943.00,1711.00,452.00,245.00,130.00,150.00,91.00,32.00,APPROVED
ID: BOISE,01/11/2016 23:30:00,,2944.00,1717.00,451.00,247.00,131.00,156.00,90.00,33.00,APPROVED